Regional Weather Roundup
Issued by NWS

Home | Current Version | Previous Version | Text Only | Print | Product List | Glossary On
Versions: 1 2 3 4 5 6 7 8 9 10 11 12 13 14 15 16 17 18 19 20 21 22 23 24 25 26 27 28 29 30 31 32 33 34 35 36 37 38 39 40 41 42 43 44 45 46 47 48 49 50
000
ASUS44 KJAN 261810
RWRMS

MISSISSIPPI HOURLY WEATHER ROUNDUP
NATIONAL WEATHER SERVICE JACKSON MS
100 PM CDT SUN MAR 26 2017

NOTE: "FAIR: INDICATES FEW OR NO CLOUDS BELOW 12,000 FEET WITH NO
SIGNIFICANT WEATHER AND/OR OBSTRUCTIONS TO VISIBILITY.

MSZ001>002-007>008-010>013-018>021-025>028-034>036-261900-
NORTHWEST MISSISSIPPI

CITY           SKY/WX    TMP DP  RH WIND       PRES   REMARKS
BATESVILLE     FAIR      71  56  58 SW10G16   30.01S
CLARKSDALE     SUNNY     72  61  68 S9        30.00F
CLEVELAND      FAIR      70  58  66 S6        30.00F
GREENWOOD      SUNNY     75  60  59 SW10      30.00F
6HR MIN TEMP:  62; 6HR MAX TEMP:  75;

GREENVILLE     SUNNY     73  52  47 SW14      29.99F
6HR MIN TEMP:  51; 6HR MAX TEMP:  73;

OLIVE BRANCH   PTSUNNY  N/A N/A N/A SW10      29.97
OXFORD         PTSUNNY   72  54  53 S9        30.01F
$$

MSZ003>006-009-014>017-022>024-029>033-037>039-261900-
NORTHEAST MISSISSIPPI

CITY           SKY/WX    TMP DP  RH WIND       PRES   REMARKS
COLUMBUS AFB   PTSUNNY   73  60  65 S13       30.02F
6HR MIN TEMP:  60; 6HR MAX TEMP:  73;

STARKVILLE     FAIR      73  57  56 S12G18    30.03F
TUPELO         PTSUNNY   72  57  59 S7G17     30.00F
6HR MIN TEMP:  59; 6HR MAX TEMP:  72;

$$

MSZ040-058-261900-
CENTRAL MISSISSIPPI

CITY           SKY/WX    TMP DP  RH WIND       PRES   REMARKS
JACKSON INTL   SUNNY     78  60  53 SW10      30.01F
6HR MIN TEMP:  64; 6HR MAX TEMP:  79;

JACKSON HAWKNS MOSUNNY   79  59  50 SW10G17   30.02F
6HR MIN TEMP:  64; 6HR MAX TEMP:  79;

MERIDIAN KEY   PTSUNNY   74  64  71 SW13      30.05F
6HR MIN TEMP:  62; 6HR MAX TEMP:  75;

MERIDIAN NAS   PTSUNNY   75  61  61 W10G17    30.05F
6HR MIN TEMP:  63; 6HR MAX TEMP:  76;

VICKSBURG VKS  PTCLDY    77  63  61 W10       29.98F
$$

MSZ059>079-261900-
SOUTH MISSISSIPPI

CITY           SKY/WX    TMP DP  RH WIND       PRES   REMARKS
BROOKHAVEN     MOCLDY    79  63  57 SE10      30.05F
COLUMBIA       FAIR      79 -33   1 SW9G16    30.07F
HATTIESBURG    SUNNY     79  63  57 SW12      30.05F
6HR MIN TEMP:  59; 6HR MAX TEMP:  79;

MCCOMB         PTSUNNY   78  62  57 S9        30.03F
6HR MIN TEMP:  64; 6HR MAX TEMP:  78;

NATCHEZ        MOSUNNY   79  63  57 S10G16    30.01F
6HR MIN TEMP:  64; 6HR MAX TEMP:  79;

PINE BELT      MOSUNNY   77  63  61 S8G16     30.07F
6HR MIN TEMP:  59; 6HR MAX TEMP:  77;

$$

MSZ080>082-261900-
COASTAL MISSISSIPPI

CITY           SKY/WX    TMP DP  RH WIND       PRES   REMARKS
BAY ST LOUIS   PTSUNNY   79  63  57 S9        30.05F
BILOXI         SUNNY     77  69  76 S9        30.06F
6HR MIN TEMP:  69; 6HR MAX TEMP:  77;

PASCAGOULA     MOSUNNY   81  63  54 S7        30.07F
6HR MIN TEMP:  60; 6HR MAX TEMP:  81;

GULFPORT       MOSUNNY   77  69  76 S10       30.06F
6HR MIN TEMP:  70; 6HR MAX TEMP:  78;

$$

LAZ007>009-015>016-023>026-261900-
NORTHEAST LOUISIANA

CITY           SKY/WX    TMP DP  RH WIND       PRES   REMARKS
BASTROP        FAIR      78  53  42 SW8       29.99F
TALLULAH/VBURG MOSUNNY   77  61  57 VRB6      30.00F
6HR MIN TEMP:  56; 6HR MAX TEMP:  78;

VIDALIA        FAIR      76  65  69 S13       30.01F
$$



USA.gov is the U.S. government's official web portal to all federal, state and local government web resources and services.